Creek Data

    Home     View Charts     View Raw Data     Messages

ID Distance Battery Voltage Battery Current Internal Temp Internal Humidity External Temp Solar Input rssi snr Time Stamp Record
68654 14.8 3.45 -5 46 51 49 0 -76 9 03/12/2026 04:15 AM 51527
68653 14.8 3.48 -5 46 51 49 0 -75 8 03/12/2026 04:00 AM 51526
68652 14.8 3.69 -5 46 52 49 0.1 -75 8 03/12/2026 03:45 AM 51525
68651 14.9 3.46 -5 46 52 47 0 -76 9 03/12/2026 03:30 AM 51524
68650 14.9 3.70 -5 47 52 49 0 -75 8 03/12/2026 03:15 AM 51523
68649 14.9 3.47 -5 48 51 50 0 -75 9 03/12/2026 03:00 AM 51522
68648 14.9 3.45 -5 48 52 50 0.1 -76 9 03/12/2026 02:45 AM 51521
68647 14.9 3.47 -5 48 52 49 0 -76 8 03/12/2026 02:30 AM 51520
68646 14.9 3.69 -5 48 52 51 0 -75 9 03/12/2026 02:15 AM 51519
68645 14.9 3.47 -5 48 52 51 0 -76 9 03/12/2026 02:00 AM 51518
68644 14.9 3.50 -5 48 52 50 0 -76 9 03/12/2026 01:45 AM 51517
68643 14.9 3.49 -5 49 52 50 0 -75 9 03/12/2026 01:30 AM 51516
68642 14.9 3.48 -5 50 52 52 0 -75 8 03/12/2026 01:15 AM 51515
68641 14.9 3.70 -5 50 52 52 0 -76 9 03/12/2026 01:00 AM 51514
68640 14.9 3.48 -5 50 53 52 0.1 -75 9 03/12/2026 12:45 AM 51513
68639 14.9 3.50 -5 51 53 52 0.1 -76 9 03/12/2026 12:30 AM 51512
68638 14.9 3.71 -5 52 53 53 0 -76 9 03/12/2026 12:15 AM 51511
68637 14.9 3.49 -5 52 53 54 0 -76 9 03/12/2026 12:00 AM 51510
68636 14.9 3.51 -5 53 53 55 0 -76 9 03/11/2026 11:45 PM 51509
68635 14.9 3.53 -5 53 53 55 0 -76 8 03/11/2026 11:30 PM 51508
68634 14.9 3.71 -5 53 54 55 0 -74 9 03/11/2026 11:15 PM 51507
68633 14.9 3.52 -5 54 53 54 0.1 -76 9 03/11/2026 11:00 PM 51506
68632 14.9 3.49 -5 56 53 58 0 -76 9 03/11/2026 10:45 PM 51505
68631 14.9 3.51 -5 57 53 58 0 -75 8 03/11/2026 10:30 PM 51504
68630 14.9 3.53 -5 57 53 60 0 -75 8 03/11/2026 10:15 PM 51503